Theta_e
319 319 319 318 318 317 317 317 317 317 317 317 317 317 317 317 317 317 317 317 317 317 318 321 323 319 313 303 307 327 339 340 333 312 309 305 302 302 304 309 314 312 316 326 331 331 330
319 319 318 318 318 317 317 317 317 317 317 317 317 316 316 316 317 317 316 316 316 316 317 320 323 321 305 294 311 335 332 329 319 308 306 306 305 307 307 311 311 316 316 316 329 328 330
319 318 318 318 318 317 317 317 317 316 316 316 316 316 316 316 316 316 316 315 315 316 317 319 324 318 307 302 323 330 328 318 317 308 305 306 309 312 313 312 316 316 311 313 325 328 326
319 318 318 317 317 317 316 316 316 316 315 315 315 315 315 315 315 315 315 314 315 316 318 320 324 313 304 318 317 326 323 318 316 308 307 308 311 310 311 315 311 304 301 295 317 329 331
319 318 318 318 317 317 316 316 315 315 315 315 315 315 315 315 315 315 314 314 316 318 320 324 314 308 307 324 310 311 323 311 313 309 307 315 311 305 307 304 298 299 296 297 308 328 328
318 318 318 317 316 316 316 316 316 316 316 316 315 315 315 315 314 313 313 313 315 319 321 323 319 303 307 305 307 309 311 314 317 313 309 306 303 300 301 298 292 295 295 293 296 321 326
317 317 317 317 316 316 316 316 315 316 316 315 315 315 314 314 313 312 308 303 298 298 311 304 307 307 311 307 307 306 310 311 310 306 299 302 300 297 302 303 302 300 297 296 301 304 309
317 317 316 316 316 316 316 316 316 315 315 315 315 314 314 313 312 311 306 300 299 302 295 305 310 312 314 309 299 304 306 305 306 300 303 301 297 304 307 306 303 300 298 297 301 303 299
317 317 316 316 316 316 316 315 315 315 315 315 314 314 313 312 311 306 302 302 307 302 292 298 301 301 302 303 299 302 304 302 305 302 302 299 304 310 307 303 302 297 295 297 297 302 321
317 317 316 316 316 316 315 315 315 315 314 314 314 314 312 310 303 301 304 306 308 300 288 295 295 301 300 299 299 310 308 305 303 303 303 301 307 306 302 303 302 293 302 302 300 294 290
317 317 316 315 315 315 315 315 315 314 314 314 314 313 311 309 300 302 307 307 304 300 282 299 296 303 297 296 299 299 305 302 298 300 298 298 299 301 299 301 304 300 304 300 298 292 290
317 316 315 314 314 314 314 314 314 314 314 314 313 312 310 305 300 305 307 304 300 288 284 293 297 294 294 294 297 302 301 302 302 298 296 297 302 300 300 303 304 305 299 296 292 290 285
316 315 315 314 313 313 314 314 314 314 313 313 311 309 308 308 301 304 303 300 288 284 296 294 291 292 292 290 294 297 295 293 290 287 286 293 294 297 299 295 299 297 291 286 285 284 284
316 316 315 313 313 314 314 315 314 314 313 311 309 307 307 308 303 304 301 294 285 293 291 297 297 294 291 292 293 294 292 289 294 290 286 285 286 293 299 293 290 292 291 287 282 282 285
316 315 314 315 314 314 315 315 314 313 313 310 307 303 303 306 308 302 297 287 285 290 295 295 295 292 291 295 293 293 289 289 293 291 286 284 286 296 298 298 295 292 288 292 287 285 286
316 315 315 315 314 315 315 315 314 313 312 310 302 303 304 309 306 300 293 289 290 296 297 296 290 293 288 291 291 289 289 293 294 295 290 288 284 291 296 297 297 292 293 288 287 283 282
315 315 315 315 315 315 315 315 314 313 311 308 303 299 305 304 304 296 288 288 293 297 299 294 291 290 289 289 289 287 288 293 296 295 292 287 286 288 292 290 289 289 287 286 287 287 284
315 315 315 315 314 315 315 315 314 312 309 304 301 295 307 304 295 289 289 292 298 295 297 295 294 292 290 291 288 288 288 292 298 294 289 288 284 282 285 292 295 293 287 285 283 283 285
315 315 315 315 314 315 316 315 313 311 309 301 299 298 305 302 289 288 291 295 295 295 294 294 292 293 292 288 286 290 292 297 297 293 287 289 281 278 281 286 290 287 290 286 285 283 282
315 315 315 314 315 315 316 315 313 311 310 302 296 292 296 296 291 291 289 290 291 298 295 295 293 292 290 287 288 287 289 296 298 298 304 293 280 279 277 280 285 286 289 290 285 282 283
314 314 314 314 315 315 316 315 313 311 309 302 296 292 293 289 291 291 291 292 292 291 295 294 292 292 288 284 285 286 289 290 294 297 293 287 281 283 283 287 289 288 288 289 286 286 283
314 314 314 314 315 315 316 316 314 312 309 302 296 295 294 289 290 290 290 289 292 293 292 289 289 293 290 286 286 285 287 286 285 290 288 287 283 283 281 288 287 285 290 291 292 295 292
314 313 314 314 314 315 316 316 315 312 308 302 302 301 295 293 289 288 287 290 293 293 295 295 292 289 289 291 293 291 291 290 288 286 284 285 283 280 277 285 283 281 287 293 295 295 296
314 313 313 313 314 315 316 317 316 313 309 304 303 301 294 289 291 291 294 295 294 293 291 295 293 288 292 294 294 292 293 290 291 288 286 284 283 281 278 279 275 282 295 298 295 296 296
313 313 313 313 314 314 315 317 317 314 312 306 304 303 295 289 294 295 295 294 293 293 292 293 296 295 295 293 287 285 286 287 288 289 288 286 283 279 278 277 281 288 291 293 289 291 297
313 313 313 312 313 314 315 317 317 315 313 305 304 306 300 293 293 300 295 294 289 288 291 295 297 295 294 287 286 280 280 283 283 285 287 288 286 284 279 278 277 285 292 296 296 284 296
312 312 312 312 313 313 314 316 316 316 314 305 305 305 303 295 296 295 292 292 293 290 289 291 294 293 293 285 279 277 278 283 275 278 279 278 279 278 278 277 284 291 293 295 283 283 295
312 312 312 312 312 313 313 315 316 315 315 306 306 307 303 298 299 301 301 297 295 292 289 292 291 291 288 284 283 279 278 282 275 279 281 279 276 274 277 281 279 293 293 286 289 290 292
311 312 312 312 312 312 313 314 315 315 315 310 304 307 307 301 301 305 305 305 304 301 295 291 291 290 289 286 285 283 280 281 279 275 285 279 283 279 281 281 289 291 289 291 290 289 289
Wind_Speed
15 15 16 16 16 16 17 18 18 18 19 20 20 20 20 20 20 19 18 17 16 15 12 11 5 3 1 1 9 3 18 13 7 7 7 6 6 6 5 4 3 4 6 8 8 11 6
16 16 16 17 17 17 19 19 20 20 20 20 20 20 20 20 20 19 19 18 16 14 12 10 3 4 1 3 2 11 13 10 6 6 6 6 8 6 2 4 3 4 6 7 12 10 7
16 16 16 16 17 17 18 19 20 21 22 22 21 21 21 20 21 20 20 20 18 14 12 10 4 4 1 10 3 9 12 7 8 9 7 4 2 3 0 5 3 8 7 4 8 10 7
16 16 17 17 17 18 19 20 21 21 21 22 23 23 22 21 21 22 21 21 20 15 10 8 7 2 8 5 4 6 5 3 4 4 3 8 3 1 2 4 5 2 4 3 3 10 8
14 15 17 18 18 19 20 21 22 21 21 21 22 23 24 23 22 20 20 23 18 5 7 8 4 2 9 8 4 7 9 5 7 4 4 5 7 5 1 1 4 7 1 1 2 9 5
15 17 18 19 20 19 19 20 21 22 21 20 21 22 23 23 22 20 21 17 2 10 4 5 4 2 5 3 3 6 7 7 5 7 4 3 3 2 3 4 3 1 2 2 2 7 3
16 16 18 19 20 19 19 20 21 22 23 22 21 22 23 24 23 18 10 3 4 3 2 6 3 4 6 7 4 3 5 6 5 5 5 3 4 4 6 6 4 3 3 2 4 7 6
15 16 18 20 20 20 20 20 21 21 22 23 23 21 23 24 23 21 4 3 1 3 7 8 7 7 7 3 4 2 4 4 5 4 4 6 3 8 1 4 4 2 1 5 7 4 7
16 17 17 18 18 19 20 21 21 22 22 22 22 23 23 25 27 3 2 4 4 3 2 8 5 5 5 7 5 3 5 3 5 4 4 5 5 3 4 2 2 3 4 4 6 2 6
16 16 17 17 17 19 20 21 21 21 22 23 22 22 21 27 2 4 5 4 8 2 5 5 3 5 3 3 3 2 4 5 2 8 7 3 3 5 4 5 6 5 7 7 4 3 2
15 16 17 18 18 19 20 21 22 22 21 23 23 20 18 11 5 2 5 9 5 6 5 2 2 0 2 5 5 1 0 4 4 4 6 7 2 5 5 10 6 10 5 8 5 3 3
16 17 18 19 21 20 20 21 22 23 22 23 22 18 16 2 2 7 8 7 5 6 3 3 2 2 4 3 1 2 4 7 2 4 2 5 2 3 6 4 9 7 4 6 5 4 3
19 19 20 20 20 21 20 21 22 23 24 23 22 17 5 2 4 5 5 5 6 6 7 9 4 1 4 1 2 4 6 11 5 4 4 5 4 6 6 3 4 5 7 3 3 3 6
18 19 20 22 22 20 20 21 22 23 24 24 25 15 5 5 3 5 4 7 11 5 4 4 5 1 5 2 7 8 5 7 8 6 5 3 3 7 8 2 1 3 7 7 6 5 4
18 18 20 19 21 21 20 21 22 24 25 25 18 2 1 4 5 3 6 8 1 3 5 7 4 8 7 7 5 7 5 5 6 5 6 3 2 5 4 6 2 4 5 0 7 4 4
18 18 19 19 20 21 21 21 22 24 26 22 3 3 4 5 4 5 7 4 3 5 5 5 5 5 7 8 5 6 5 5 5 9 1 1 2 3 6 7 8 8 2 4 4 5 3
17 18 19 20 20 21 22 20 21 23 26 11 4 5 4 5 4 7 5 2 3 5 4 6 6 5 2 3 5 4 2 4 5 4 8 2 4 7 4 8 7 8 7 5 3 4 6
17 16 17 18 20 22 22 21 21 20 23 8 3 6 5 4 6 2 3 2 3 8 7 6 4 4 4 4 6 5 4 2 5 2 4 5 4 4 3 7 10 16 5 4 4 5 2
17 18 18 18 19 21 22 21 21 18 11 1 4 2 6 6 4 4 5 6 7 7 7 5 8 6 6 4 6 4 4 7 8 4 2 3 4 4 5 7 9 8 8 5 3 2 2
16 16 18 19 19 20 21 21 21 19 11 3 4 5 6 6 2 6 5 5 3 7 6 5 4 5 7 10 10 5 5 6 6 5 11 9 4 6 6 3 2 4 5 6 5 4 3
14 16 17 17 18 19 21 21 22 22 5 2 4 0 3 4 6 5 5 4 4 3 4 8 8 8 3 6 5 5 6 6 5 10 6 7 4 2 3 2 2 1 2 3 1 3 3
12 14 16 16 17 18 20 20 21 24 2 6 4 3 5 2 2 6 6 3 2 3 4 3 6 5 7 5 4 1 1 1 1 6 4 4 2 2 2 3 3 2 4 4 2 3 3
12 13 14 16 16 16 18 18 19 23 9 4 2 2 5 5 3 4 1 1 2 0 5 3 3 4 4 1 4 4 4 3 3 4 3 3 5 3 3 4 2 4 5 6 7 9 4
10 12 12 13 15 15 16 17 16 17 10 3 1 3 5 2 2 1 2 1 1 2 3 3 2 3 3 2 3 6 8 9 9 7 2 5 4 2 2 4 2 3 5 6 10 6 6
9 10 10 11 13 14 14 14 14 15 14 3 1 3 4 2 1 1 2 2 2 3 1 2 2 3 4 7 5 5 6 4 5 6 7 3 5 3 4 3 4 2 4 3 3 1 5
10 10 9 10 11 12 14 13 12 12 13 3 1 2 4 6 4 1 2 2 2 1 4 3 4 2 7 4 4 3 2 2 2 2 5 5 6 5 3 4 5 3 4 4 4 4 7
9 9 9 9 9 10 11 12 12 11 12 2 1 2 4 4 4 5 3 5 5 2 2 4 4 3 4 3 3 3 2 3 1 1 2 4 4 4 3 2 3 3 7 5 5 2 3
7 8 7 7 8 8 9 11 11 11 12 3 2 2 4 2 5 6 7 5 2 3 4 4 5 4 4 4 3 3 3 4 3 4 4 4 4 2 3 2 7 5 1 3 3 2 2
7 8 8 7 6 7 8 9 9 9 11 4 1 2 1 3 6 3 5 6 10 10 7 1 5 4 5 5 1 3 2 2 4 2 1 2 7 5 8 6 1 3 3 2 3 1 2
Wind_Direction
354 353 352 351 348 345 343 341 339 337 336 334 333 332 332 331 330 328 325 325 323 321 317 311 307 246 217 296 250 140 146 156 132 148 169 149 140 159 191 201 195 238 269 182 173 162 156
355 353 351 349 347 345 343 340 338 336 335 333 332 330 330 329 328 325 322 319 317 313 305 300 271 166 221 269 194 136 138 143 154 146 175 163 181 186 204 250 181 230 234 253 173 170 155
351 350 349 346 344 343 340 338 336 335 335 334 331 329 328 328 326 323 319 314 310 303 292 281 214 206 253 238 52 141 144 180 169 166 160 208 157 118 39 300 316 252 268 309 149 154 162
349 347 344 343 341 340 339 337 336 334 334 332 330 328 326 325 324 320 317 311 305 292 268 246 173 214 247 221 155 167 180 152 170 175 124 176 109 318 200 286 326 300 52 35 187 156 168
349 345 343 342 341 340 339 336 334 333 331 330 327 326 324 323 320 319 316 312 306 267 177 174 134 168 270 306 181 196 161 191 138 129 267 170 141 200 299 144 13 3 152 56 118 213 159
350 348 343 342 342 340 337 334 332 329 329 329 327 325 322 320 319 321 322 314 215 105 157 183 245 326 271 292 229 159 198 168 146 124 153 171 89 117 29 80 202 180 44 20 72 170 197
351 343 340 339 339 336 335 334 331 329 328 327 325 324 322 320 318 321 340 39 23 17 199 200 189 259 267 294 297 166 162 117 101 105 138 204 107 193 217 196 177 141 177 282 224 202 199
342 340 340 339 336 335 334 332 330 327 327 325 323 323 322 321 318 320 144 30 245 184 308 235 232 250 261 160 303 272 104 118 127 180 133 49 192 221 240 210 198 263 339 294 291 274 168
341 339 336 335 335 334 331 330 328 327 325 324 321 322 327 324 318 308 302 244 299 173 107 297 212 211 225 131 223 215 119 136 126 148 138 138 218 184 169 278 260 260 179 231 221 9 27
338 334 334 335 336 336 333 329 327 326 323 321 319 321 330 329 354 324 282 318 316 133 65 286 249 269 161 181 39 165 185 128 74 181 150 194 238 200 242 240 156 263 197 234 245 72 249
337 335 337 341 341 336 333 330 327 323 321 317 317 321 328 336 292 316 309 318 335 58 75 191 207 42 90 124 164 265 105 59 144 130 100 244 217 179 204 227 155 235 212 192 201 148 79
337 338 342 343 340 338 333 330 327 323 320 318 316 316 329 107 254 251 298 319 52 41 77 16 102 149 90 23 232 105 58 31 93 118 338 224 256 136 214 230 187 236 128 52 62 105 58
341 339 342 344 343 337 333 332 327 322 321 320 317 307 297 287 243 304 318 43 44 65 324 344 340 77 80 44 26 45 74 49 37 55 2 2 14 324 34 46 18 91 67 352 26 49 194
338 338 339 343 343 336 334 332 328 324 323 326 323 308 171 216 247 5 36 54 59 328 326 328 316 28 76 108 7 23 54 30 4 38 67 57 11 6 331 6 308 325 144 151 178 170 188
335 339 342 338 336 335 335 334 331 328 329 334 327 337 339 274 194 117 72 56 191 304 286 323 336 49 1 1 102 75 58 33 20 356 107 56 120 337 333 43 56 309 51 231 96 17 72
335 336 338 339 340 335 334 337 334 334 332 338 35 12 299 320 154 63 71 98 81 336 339 30 69 23 35 345 60 70 31 312 350 19 113 94 43 1 305 13 29 79 334 62 10 128 154
332 337 339 340 341 337 335 338 337 337 331 335 46 39 267 37 45 40 91 101 50 333 47 47 23 37 36 6 50 71 55 342 350 358 53 44 62 303 42 20 335 9 13 5 108 99 151
329 337 341 342 344 339 336 337 339 341 335 37 54 45 310 60 47 10 42 37 42 352 8 33 67 55 41 6 46 65 92 79 334 10 52 341 119 49 35 309 110 77 60 74 88 325 19
330 337 341 345 346 343 337 338 339 344 3 57 77 283 323 66 84 9 335 29 61 34 20 38 13 16 26 34 89 63 76 4 11 62 88 328 19 45 20 343 11 39 355 19 109 60 26
330 338 345 343 345 347 340 338 339 342 337 100 78 32 339 38 55 104 75 5 89 26 51 53 19 43 46 21 19 56 34 38 10 62 65 83 64 129 165 197 200 7 4 5 91 73 295
329 335 344 346 346 349 341 341 343 349 7 82 34 213 190 346 360 66 66 11 51 33 37 24 25 36 76 59 35 42 10 3 9 359 32 88 104 119 166 208 96 279 293 293 164 205 137
327 335 343 350 346 350 345 344 349 353 46 72 92 73 10 47 342 36 17 350 51 357 50 16 91 51 58 92 132 106 62 359 314 355 49 21 161 76 0 29 59 83 24 60 53 309 219
325 334 345 347 350 351 349 347 354 354 6 72 324 36 102 316 21 74 268 298 351 92 14 72 119 106 63 133 194 210 192 179 67 58 56 53 123 89 289 0 76 22 341 105 101 38 340
322 331 342 352 350 352 351 350 356 5 26 113 241 104 79 329 66 164 138 110 90 36 131 313 31 75 256 359 32 45 46 68 83 38 125 132 102 86 182 20 61 200 354 67 107 90 70
320 326 342 357 350 349 352 352 358 4 9 70 310 94 111 107 226 65 136 103 32 15 330 278 262 204 106 50 52 29 349 40 43 27 28 85 123 104 123 157 283 118 358 10 20 106 25
315 320 337 359 351 349 352 352 359 2 3 76 0 123 100 116 261 256 150 112 170 311 346 279 356 110 70 77 68 114 205 247 303 58 21 48 71 111 137 146 221 184 272 314 288 259 4
309 319 337 351 354 348 349 351 359 2 359 77 305 67 96 113 252 140 174 179 144 118 182 307 340 39 61 76 81 134 245 170 210 160 348 14 6 136 152 185 281 194 266 295 165 245 319
306 313 330 338 348 341 345 348 353 359 357 48 274 4 106 134 278 195 172 150 125 126 149 247 42 349 44 74 121 209 132 223 77 231 175 163 129 209 87 163 260 197 274 197 197 177 31
313 319 322 327 333 336 340 340 344 355 355 22 351 331 56 132 233 269 222 207 178 181 144 176 178 170 175 96 143 102 94 121 157 270 111 237 182 186 176 217 223 188 224 99 120 224 291